Weather History for Savannah Hunter, GA

Change the Weather History Date:

Friday, February 1, 2013

  Actual Average Record
Temperature  
Mean Temperature 50 °F -  
Max Temperature 61 °F 60 °F 84 °F (2002)
Min Temperature 39 °F 39 °F 26 °F (2000)
Degree Days  
Heating Degree Days 15    
Moisture  
Dew Point 22 °F    
Average Humidity 39    
Maximum Humidity 66    
Minimum Humidity 17    
Precipitation  
Precipitation 0.00 in - - ()
Sea Level Pressure  
Sea Level Pressure 30.26 in    
Wind  
Wind Speed 10 mph (WNW)    
Max Wind Speed 18 mph    
Max Gust Speed 26 mph    
Visibility 10 miles    
Events      
Averages and records for this station are not official NWS values.
T = Trace of Precipitation, MM = Missing Value Source: NWS Daily Summary

Daily Weather History Graph

Daily Weather History Graph

Search for Another Location

Airport:

Trip Planner

Search our weather history database for the weather conditions in past years. The results will help you decide how hot, cold, wet, or windy it might be!

Date:

Astronomy

Feb. 01, 2013 Rise Set
Actual Time 7:18 AM EST 5:58 PM EST
Civil Twilight 6:52 AM EST 6:24 PM EST
Nautical Twilight 6:23 AM EST 6:53 PM EST
Astronomical Twilight 5:54 AM EST 7:22 PM EST
Moon 11:38 PM EST (2/1) 10:14 AM EST (2/1)
Length of Visible Light 11h 32m
Length of Day
10h 40m
Waning Gibbous, 70% of the Moon is Illuminated
Feb 1
Waning Gibbous
Feb 3
Last Quarter
Feb 10
New
Feb 17
First Quarter
Feb 25
Full

Hourly Weather History & Observations

Time (EST) Temp. Windchill Dew Point Humidity Pressure Visibility Wind Dir Wind Speed Gust Speed Precip Events Conditions
12:55 AM 40.1 °F 35.3 °F 28.2 °F 63% 30.21 in 10.0 mi West 6.9 mph - N/A   Clear
1:55 AM 39.0 °F 34.0 °F 28.4 °F 66% 30.22 in 10.0 mi West 6.9 mph - N/A   Clear
2:55 AM 39.9 °F 35.1 °F 27.9 °F 62% 30.22 in 10.0 mi West 6.9 mph - N/A   Clear
3:55 AM 40.6 °F 35.4 °F 27.1 °F 59% 30.21 in 10.0 mi WSW 8.1 mph - N/A   Clear
4:55 AM 41.2 °F 36.0 °F 27.3 °F 58% 30.22 in 10.0 mi WSW 8.1 mph - N/A   Clear
5:55 AM 41.2 °F 36.0 °F 27.0 °F 57% 30.22 in 10.0 mi WSW 8.1 mph - N/A   Clear
6:55 AM 40.1 °F 34.7 °F 27.7 °F 61% 30.22 in 10.0 mi WSW 8.1 mph - N/A   Clear
7:55 AM 42.4 °F 37.0 °F 27.9 °F 56% 30.23 in 10.0 mi WSW 9.2 mph - N/A   Clear
8:55 AM 47.1 °F - 28.6 °F 49% 30.25 in 10.0 mi West 10.4 mph - N/A   Clear
9:55 AM 53.6 °F - 28.0 °F 37% 30.24 in 10.0 mi West 18.4 mph - N/A   Clear
10:55 AM 56.3 °F - 30.2 °F 37% 30.25 in 10.0 mi WNW 15.0 mph 23.0 mph N/A   Clear
11:55 AM 56.1 °F - 30.2 °F 37% 30.25 in 10.0 mi WNW 18.4 mph - N/A   Clear
12:55 PM 59.5 °F - 29.8 °F 32% 30.23 in 10.0 mi WNW 15.0 mph 24.2 mph N/A   Clear
1:55 PM 61.3 °F - 26.2 °F 26% 30.22 in 10.0 mi NW 18.4 mph 26.5 mph N/A   Clear
2:55 PM 60.8 °F - 19.8 °F 21% 30.22 in 10.0 mi WNW 17.3 mph - N/A   Clear
3:55 PM 59.4 °F - 18.5 °F 20% 30.23 in 10.0 mi WNW 16.1 mph - N/A   Clear
4:55 PM 57.2 °F - 15.6 °F 20% 30.25 in 10.0 mi WNW 13.8 mph - N/A   Clear
5:55 PM 53.1 °F - 9.5 °F 17% 30.27 in 10.0 mi NNW 8.1 mph - N/A   Clear
6:55 PM 49.3 °F - 9.5 °F 20% 30.30 in 10.0 mi NW 8.1 mph - N/A   Clear
7:55 PM 45.9 °F 43.6 °F 11.3 °F 25% 30.32 in 10.0 mi NNW 4.6 mph - N/A   Clear
8:55 PM 44.2 °F 41.0 °F 11.7 °F 27% 30.33 in 10.0 mi NW 5.8 mph - N/A   Clear
9:55 PM 42.4 °F 38.1 °F 11.8 °F 29% 30.34 in 10.0 mi NNW 6.9 mph - N/A   Clear
10:55 PM 41.7 °F 37.3 °F 11.3 °F 29% 30.35 in 10.0 mi NNW 6.9 mph - N/A   Clear
11:55 PM 40.3 °F 35.5 °F 11.5 °F 31% 30.36 in 10.0 mi North 6.9 mph - N/A   Clear